TimeEDT,TemperatureF,Dew PointF,Humidity,Sea Level PressureIn,VisibilityMPH,Wind Direction,Wind SpeedMPH,Gust SpeedMPH,PrecipitationIn,Events,Conditions,WindDirDegrees,DateUTC
12:53 AM,64.9,61.0,87,29.61,10.0,Calm,Calm,-,N/A,,Overcast,0,2013-06-29 04:53:00
1:53 AM,66.9,62.1,84,29.60,10.0,NNE,4.6,-,N/A,,Overcast,30,2013-06-29 05:53:00
2:53 AM,66.9,61.0,81,29.60,7.0,North,5.8,-,0.00,Rain,Light Rain,10,2013-06-29 06:53:00
3:03 AM,66.2,62.6,88,29.61,5.0,NE,8.1,-,0.00,Rain,Light Rain,40,2013-06-29 07:03:00
3:09 AM,64.4,62.6,94,29.61,2.5,NNE,5.8,-,0.01,Rain,Light Rain,20,2013-06-29 07:09:00
3:13 AM,64.4,62.6,94,29.61,1.8,NNE,5.8,-,0.06,Rain,Rain,20,2013-06-29 07:13:00
3:26 AM,64.4,62.6,94,29.61,2.0,NNE,6.9,-,0.11,Rain,Rain,20,2013-06-29 07:26:00
3:31 AM,64.4,62.6,94,29.61,3.0,NNE,6.9,-,0.11,Rain,Light Rain,20,2013-06-29 07:31:00
3:49 AM,64.4,62.6,94,29.61,10.0,NE,8.1,-,0.11,,Overcast,50,2013-06-29 07:49:00
3:53 AM,64.9,62.1,90,29.60,9.0,ENE,8.1,-,0.11,,Overcast,60,2013-06-29 07:53:00
4:07 AM,64.4,62.6,94,29.61,8.0,NE,9.2,-,N/A,,Overcast,40,2013-06-29 08:07:00
4:32 AM,64.4,60.8,88,29.61,10.0,NE,5.8,-,N/A,,Overcast,40,2013-06-29 08:32:00
4:53 AM,64.0,62.1,93,29.61,8.0,North,4.6,-,N/A,,Overcast,350,2013-06-29 08:53:00
5:05 AM,64.4,60.8,88,29.62,10.0,NNW,3.5,-,N/A,,Overcast,340,2013-06-29 09:05:00
5:53 AM,64.0,61.0,90,29.62,10.0,NNE,4.6,-,0.01,,Overcast,20,2013-06-29 09:53:00
6:07 AM,64.4,60.8,88,29.63,10.0,NNE,9.2,-,N/A,,Overcast,20,2013-06-29 10:07:00
6:19 AM,64.4,60.8,88,29.63,10.0,NNE,8.1,-,N/A,,Overcast,30,2013-06-29 10:19:00
6:53 AM,64.0,60.1,87,29.63,10.0,North,6.9,-,N/A,,Overcast,10,2013-06-29 10:53:00
7:43 AM,64.4,60.8,88,29.65,10.0,NNE,8.1,-,N/A,,Overcast,30,2013-06-29 11:43:00
7:53 AM,64.0,60.1,87,29.65,10.0,NE,8.1,-,N/A,,Overcast,40,2013-06-29 11:53:00
8:53 AM,64.0,57.9,80,29.66,10.0,NNE,8.1,-,N/A,,Overcast,30,2013-06-29 12:53:00
9:37 AM,64.4,57.2,77,29.67,10.0,NE,9.2,-,N/A,,Overcast,40,2013-06-29 13:37:00
9:53 AM,64.9,57.0,75,29.67,10.0,NE,8.1,-,N/A,,Overcast,40,2013-06-29 13:53:00
10:53 AM,66.9,55.9,68,29.67,10.0,North,6.9,-,N/A,,Scattered Clouds,10,2013-06-29 14:53:00
11:53 AM,70.0,57.9,65,29.68,10.0,North,9.2,-,N/A,,Scattered Clouds,360,2013-06-29 15:53:00
12:53 PM,71.1,55.9,59,29.68,10.0,NE,9.2,-,N/A,,Scattered Clouds,50,2013-06-29 16:53:00
1:53 PM,70.0,55.0,59,29.69,10.0,North,9.2,-,N/A,,Overcast,360,2013-06-29 17:53:00
2:53 PM,72.0,55.0,55,29.70,10.0,North,12.7,18.4,N/A,,Mostly Cloudy,360,2013-06-29 18:53:00
3:53 PM,72.0,55.9,57,29.70,10.0,NNE,8.1,-,N/A,,Mostly Cloudy,20,2013-06-29 19:53:00
4:53 PM,71.1,55.9,59,29.71,10.0,North,10.4,-,N/A,,Mostly Cloudy,350,2013-06-29 20:53:00
5:53 PM,72.0,57.0,59,29.71,10.0,North,9.2,-,N/A,,Mostly Cloudy,10,2013-06-29 21:53:00
6:53 PM,72.0,57.9,61,29.72,10.0,North,8.1,17.3,N/A,,Mostly Cloudy,10,2013-06-29 22:53:00
7:53 PM,71.1,57.9,63,29.74,10.0,NNE,6.9,-,N/A,,Mostly Cloudy,20,2013-06-29 23:53:00
8:53 PM,71.1,57.0,61,29.76,10.0,NNE,6.9,-,N/A,,Mostly Cloudy,30,2013-06-30 00:53:00
9:53 PM,70.0,57.0,63,29.78,10.0,NNE,3.5,-,N/A,,Mostly Cloudy,30,2013-06-30 01:53:00
10:53 PM,66.9,57.9,73,29.80,10.0,NNW,4.6,-,N/A,,Clear,340,2013-06-30 02:53:00
11:53 PM,66.0,55.9,70,29.81,10.0,North,5.8,-,N/A,,Overcast,350,2013-06-30 03:53:00